{"data":{"norad_id":64059,"epoch":"2026-09-21T18:06:10.108224Z","epoch_age_seconds":87089,"freshness":"FRESH","line1":"1 64059U 25105B   26264.75428366 -.00000001  00000+0  87367-4 0  9994","line2":"2 64059  44.9810 312.0204 0008926 126.8480 233.3173 13.99181975 68726","mean_motion":13.99181975,"eccentricity":0.0008926,"inclination_deg":44.981,"raan_deg":312.0204,"arg_perigee_deg":126.848,"mean_anomaly_deg":233.3173,"bstar":8.7367e-5,"rev_number":6872,"period_min":102.91727779012,"perigee_km":890.13574166085,"apogee_km":903.12265427746,"semimajor_km":7274.7661979692,"source":"CELESTRAK","updated_at":"2026-09-22T09:00:29.524569Z"}}